DEORBITSAIL

Satellite information

Favourite Embed

Satellite Type and Status

PAYLOADIN ORBIT

Key statistics

Satellite DEORBITSAIL at a glance.

Uptime

3809

Days in orbit

Revolutions

≈ 15.0

Per day

Orbit

SSO

Sun Synchronous Orbit

Inclination

97.6

Latest

Satellite identification and parameters

Extended collection of information and parameters for DEORBITSAIL.

Object identification

Identified? True

Debris? False

Object name: DEORBITSAIL

International designator: 2015-032E

Object number (NORAD): 40719

Object ID (CCSDS): 40719

Country: UNITED KINGDOM (UK)

Current information (Y/N): Y

RCS size: SMALL

Orbital parameters

Period: 95.975 minutes

Inclination: 97.6137 deg

SMA: 6943.824 km

Apoapsis: 573.6 km

Periapsis: 557.778 km

RAAN: 201.6365 deg

Eccentricy: 0.00113934

Argument of periapsis: 133.1986 deg

Mean anomaly: 227.0191 deg

Mean motion: 15.00391867 rev/day

Mean motion (dot): 0.00013943 rev/day2

B* drag term: 0.0011114959 1/REarth

Two-line elements (TLE)

Creation date: Dec. 12, 2025, 10:14 a.m.

Reference frame: TEME

Reference center: EARTH

Epoch: Dec. 12, 2025, 3:02 a.m. UTC

TLE line 0: 0 DEORBITSAIL

TLE line 1: 1 40719U 15032E 25346.12645447 .00013943 00000-0 11115-2 0 9996

TLE line 2: 2 40719 97.6137 201.6365 0011393 133.1986 227.0191 15.00391867563160

Live tracking on map

Real-time ground track for satellite DEORBITSAIL.

In-orbit conjunctions

There are no conjunctions computed for DEORBITSAIL, at the moment. Check back to stay up to date, as we update our databases every day.

Go to all conjunctions

Associated space launch

The Polar Satellite Launch Vehicle (PSLV), in its thirtieth flight (PSLV-C28), will launch three identical DMC3 optical earth observation satellites. A, B and C. It will also carry two auxiliary satellites from UK. CBNT-1, a technology demonstrator earth observation micro satellite, and De-OrbitSail, a technology demonstrator nano satellite.

DEORBITSAIL was lifted into orbit during the mission ‘PSLV XL | DMC-3A, DMC-3B, DMC-3C, CBNT-1 & DeOrbitSAIL’, on board a PSLV-XL space rocket.

The launch took place on July 10, 2015, 4:28 p.m. from Satish Dhawan Space Centre First Launch Pad.

For more information about the launch, click the button.

Launch to space PSLV XL | DMC-3A, DMC-3B, DMC-3C, CBNT-1 & DeOrbitSAIL
PSLV XL | DMC-3A, DMC-3B, DMC-3C, CBNT-1 & DeOrbitSAIL

Agency: N/A

Status: Launch Successful

Launch date: July 10, 2015, 4:28 p.m. UTC

Rocket: PSLV-XL

Launch pad: Satish Dhawan Space Centre First Launch Pad

Location: Satish Dhawan Space Centre, India

...

Latest news about this satellite

There are no fresh news available about this satellite. Check back as we update our databases every day.


Newsletter sign-up

Weekly statistics, charts and insights to help you stay on top of the space industry.